OBJECT D

Basic Information
Catalog Number:
59680
Catalog Name:
OBJECT D
International ID:
2024-085D
Orbit Center:
EARTH
Object Status:
In Orbit
Launch Date:
2024-05-07 UTC
Country:
中国 (CN)
Orbital Information
Data Source: International Orbital Data AOE Orbital Data
Epoch Time: 2026-07-14T04:04:26+0800 2026-07-09T01:00:00+0800
Semi-major Axis: 6834.888km 6835.163km
Eccentricity: 0.001162 0.0011874
Inclination: 97.324° 97.324°
Argument of Perigee: 323.740° 343.386°
RAAN: 270.476° 265.371°
Mean Anomaly: 36.306° 112.034°
Perigee: 448.808km 448.909km
Apogee: 464.694km 465.143km
Period: 93.725分钟 93.731分钟
Mean Motion: 15.36405 15.363121
Detailed Information
Launch Site:
TSC
Orbital Altitude:
LEO
Data Source:
AOE Working Group
Reference Frame:
TEME
Time System:
UTC
Epoch Type:
SGP4
2D Orbital Map
3D Orbital Map
Orbital Altitude Analysis
Orbital Inclination Analysis
Orbit Comprehensive Analysis Chart
View Comprehensive Chart